Weather History for Coatesville, PA

Change the Weather History Date:

Thursday, November 28, 2013

  Actual Average (KLNS) Record (KLNS)
Temperature  
Mean Temperature 30 °F -  
Max Temperature 35 °F 52 °F 69 °F (1990)
Min Temperature 26 °F 34 °F 17 °F (1982)
Degree Days  
Heating Degree Days 34    
Moisture  
Dew Point 17 °F    
Average Humidity 59    
Maximum Humidity 69    
Minimum Humidity 44    
Precipitation  
Precipitation 0.00 in - - ()
Sea Level Pressure  
Sea Level Pressure 30.27 in    
Wind  
Wind Speed 14 mph (NW)    
Max Wind Speed 26 mph    
Max Gust Speed 34 mph    
Visibility 10 miles    
Events Snow    
Averages and records for this station are not official NWS values.
T = Trace of Precipitation, MM = Missing Value Source: NWS Daily Summary

Daily Weather History Graph

Daily Weather History Graph

Search for Another Location

Airport:

Trip Planner

Search our weather history database for the weather conditions in past years. The results will help you decide how hot, cold, wet, or windy it might be!

Date:

Astronomy

Nov. 28, 2013 Rise Set
Actual Time 7:03 AM EST 4:39 PM EST
Civil Twilight 6:33 AM EST 5:09 PM EST
Nautical Twilight 5:59 AM EST 5:42 PM EST
Astronomical Twilight 5:27 AM EST 6:15 PM EST
Moon 2:03 AM EST (11/28) 1:47 PM EST (11/28)
Length of Visible Light 10h 36m
Length of Day
9h 36m
Waning Crescent, 22% of the Moon is Illuminated
Nov 28
Waning Crescent
Dec 2
New
Dec 9
First Quarter
Dec 17
Full
Dec 25
Last Quarter

Hourly Weather History & Observations

Time (EST) Temp. Windchill Dew Point Humidity Pressure Visibility Wind Dir Wind Speed Gust Speed Precip Events Conditions
12:15 AM 30.2 °F 16.5 °F 17.6 °F 60% 29.91 in 10.0 mi WNW 24.2 mph 34.5 mph N/A   Partly Cloudy
12:35 AM 30.2 °F 17.4 °F 17.6 °F 60% 29.92 in 10.0 mi WNW 20.7 mph 34.5 mph N/A   Clear
12:55 AM 30.2 °F 15.9 °F 19.4 °F 64% 29.94 in 10.0 mi WNW 26.5 mph 33.4 mph N/A Snow Light Snow
1:15 AM 30.2 °F 17.4 °F 19.4 °F 64% 29.95 in 10.0 mi WNW 20.7 mph 28.8 mph N/A   Overcast
1:35 AM 28.4 °F 16.2 °F 17.6 °F 64% 29.97 in 10.0 mi WNW 17.3 mph 27.6 mph N/A   Scattered Clouds
1:55 AM 28.4 °F 16.2 °F 17.6 °F 64% 29.98 in 10.0 mi WNW 17.3 mph 27.6 mph N/A   Clear
2:15 AM 28.4 °F 15.4 °F 17.6 °F 64% 30.00 in 10.0 mi WNW 19.6 mph 26.5 mph N/A   Clear
2:35 AM 28.4 °F 18.0 °F 17.6 °F 64% 30.02 in 10.0 mi WNW 12.7 mph - N/A   Clear
2:55 AM 28.4 °F 18.0 °F 17.6 °F 64% 30.03 in 10.0 mi West 12.7 mph 20.7 mph N/A   Clear
3:15 AM 28.4 °F 16.2 °F 19.4 °F 69% 30.04 in 10.0 mi WNW 17.3 mph 23.0 mph N/A   Clear
3:35 AM 28.4 °F 17.0 °F 19.4 °F 69% 30.05 in 10.0 mi WNW 15.0 mph 27.6 mph N/A   Clear
3:55 AM 28.4 °F 16.2 °F 17.6 °F 64% 30.06 in 10.0 mi NW 17.3 mph 26.5 mph N/A   Clear
4:15 AM 28.4 °F 16.6 °F 17.6 °F 64% 30.07 in 10.0 mi WNW 16.1 mph - N/A   Clear
4:35 AM 28.4 °F 17.0 °F 17.6 °F 64% 30.09 in 10.0 mi WNW 15.0 mph 25.3 mph N/A   Clear
4:55 AM 28.4 °F 17.0 °F 17.6 °F 64% 30.09 in 10.0 mi NW 15.0 mph 27.6 mph N/A   Partly Cloudy
5:15 AM 28.4 °F 18.0 °F 15.8 °F 59% 30.12 in 10.0 mi WNW 12.7 mph 23.0 mph N/A   Clear
5:35 AM 28.4 °F 19.1 °F 15.8 °F 59% 30.14 in 10.0 mi West 10.4 mph - N/A   Clear
5:55 AM 28.4 °F 17.5 °F 15.8 °F 59% 30.16 in 10.0 mi WNW 13.8 mph - N/A   Clear
6:15 AM 28.4 °F 22.2 °F 15.8 °F 59% 30.18 in 10.0 mi West 5.8 mph - N/A   Partly Cloudy
6:35 AM 28.4 °F 20.4 °F 15.8 °F 59% 30.19 in 10.0 mi WNW 8.1 mph - N/A   Partly Cloudy
6:55 AM 26.6 °F 18.2 °F 15.8 °F 64% 30.20 in 10.0 mi WNW 8.1 mph - N/A   Clear
7:15 AM 28.4 °F 19.1 °F 15.8 °F 59% 30.21 in 10.0 mi WNW 10.4 mph - N/A   Clear
7:35 AM 28.4 °F 19.7 °F 17.6 °F 64% 30.23 in 10.0 mi WNW 9.2 mph - N/A   Scattered Clouds
7:55 AM 30.2 °F 20.8 °F 17.6 °F 60% 30.24 in 10.0 mi WNW 11.5 mph 16.1 mph N/A   Scattered Clouds
8:15 AM 30.2 °F 20.8 °F 17.6 °F 60% 30.25 in 10.0 mi WNW 11.5 mph 18.4 mph N/A   Partly Cloudy
8:35 AM 30.2 °F 19.8 °F 17.6 °F 60% 30.26 in 10.0 mi WNW 13.8 mph 18.4 mph N/A   Partly Cloudy
8:55 AM 30.2 °F 18.1 °F 17.6 °F 60% 30.27 in 10.0 mi NW 18.4 mph 26.5 mph N/A   Clear
9:15 AM 32.0 °F 21.2 °F 17.6 °F 55% 30.28 in 10.0 mi WNW 16.1 mph 23.0 mph N/A   Partly Cloudy
9:35 AM 32.0 °F 21.2 °F 17.6 °F 55% 30.29 in 10.0 mi NW 16.1 mph 24.2 mph N/A   Partly Cloudy
9:55 AM 32.0 °F 21.2 °F 17.6 °F 55% 30.30 in 10.0 mi NW 16.1 mph 23.0 mph N/A   Scattered Clouds
10:15 AM 32.0 °F 19.8 °F 15.8 °F 51% 30.30 in 10.0 mi NW 20.7 mph 27.6 mph N/A   Scattered Clouds
10:35 AM 32.0 °F 20.5 °F 17.6 °F 55% 30.30 in 10.0 mi NNW 18.4 mph 25.3 mph N/A   Mostly Cloudy
10:55 AM 32.0 °F 22.1 °F 15.8 °F 51% 30.31 in 10.0 mi NW 13.8 mph 24.2 mph N/A   Mostly Cloudy
11:15 AM 32.0 °F 20.1 °F 15.8 °F 51% 30.31 in 10.0 mi NNW 19.6 mph 27.6 mph N/A   Scattered Clouds
11:35 AM 32.0 °F 21.2 °F 17.6 °F 55% 30.31 in 10.0 mi NW 16.1 mph 23.0 mph N/A   Partly Cloudy
11:55 AM 33.8 °F 22.8 °F 15.8 °F 48% 30.31 in 10.0 mi NW 18.4 mph 24.2 mph N/A   Partly Cloudy
12:15 PM 33.8 °F 22.8 °F 15.8 °F 48% 30.32 in 10.0 mi NNW 18.4 mph 25.3 mph N/A   Clear
12:35 PM 33.8 °F 23.9 °F 15.8 °F 48% 30.32 in 10.0 mi NW 15.0 mph 25.3 mph N/A   Scattered Clouds
12:55 PM 32.0 °F 22.5 °F 15.8 °F 51% 30.31 in 10.0 mi NNW 12.7 mph 19.6 mph N/A   Partly Cloudy
1:15 PM 33.8 °F 23.9 °F 17.6 °F 52% 30.31 in 10.0 mi NNW 15.0 mph 18.4 mph N/A   Partly Cloudy
1:35 PM 33.8 °F 24.3 °F 17.6 °F 52% 30.31 in 10.0 mi NW 13.8 mph 19.6 mph N/A   Partly Cloudy
1:55 PM 35.6 °F 26.2 °F 17.6 °F 48% 30.32 in 10.0 mi WNW 15.0 mph 20.7 mph N/A   Mostly Cloudy
2:15 PM 33.8 °F 23.5 °F 15.8 °F 48% 30.32 in 10.0 mi NW 16.1 mph 19.6 mph N/A   Scattered Clouds
2:35 PM 33.8 °F 25.3 °F 15.8 °F 48% 30.32 in 10.0 mi NNW 11.5 mph 18.4 mph N/A   Scattered Clouds
2:55 PM 33.8 °F 24.8 °F 14.0 °F 44% 30.33 in 10.0 mi NNW 12.7 mph - N/A   Partly Cloudy
3:15 PM 33.8 °F 25.8 °F 15.8 °F 48% 30.34 in 10.0 mi NW 10.4 mph - N/A   Clear
3:35 PM 33.8 °F 25.8 °F 15.8 °F 48% 30.35 in 10.0 mi NNW 10.4 mph - N/A   Clear
3:55 PM 32.0 °F 23.0 °F 15.8 °F 51% 30.35 in 10.0 mi NW 11.5 mph - N/A   Clear
4:15 PM 32.0 °F 23.6 °F 15.8 °F 51% 30.36 in 10.0 mi NW 10.4 mph - N/A   Clear
4:35 PM 30.2 °F 23.4 °F 17.6 °F 60% 30.38 in 10.0 mi NW 6.9 mph - N/A   Clear
4:55 PM 30.2 °F 23.4 °F 15.8 °F 55% 30.38 in 10.0 mi NW 6.9 mph - N/A   Clear
5:15 PM 28.4 °F 22.2 °F 15.8 °F 59% 30.39 in 10.0 mi NW 5.8 mph - N/A   Clear
5:35 PM 30.2 °F - 15.8 °F 55% 30.40 in 10.0 mi Calm Calm - N/A   Clear
5:55 PM 30.2 °F - 15.8 °F 55% 30.41 in 10.0 mi Calm Calm - N/A   Clear
6:15 PM 28.4 °F - 15.8 °F 59% 30.42 in 10.0 mi Calm Calm - N/A   Clear
6:35 PM 30.2 °F 26.7 °F 15.8 °F 55% 30.42 in 10.0 mi NW 3.5 mph - N/A   Scattered Clouds
6:55 PM 30.2 °F - 17.6 °F 60% 30.43 in 10.0 mi Calm Calm - N/A   Overcast
7:15 PM 30.2 °F 26.7 °F 17.6 °F 60% 30.43 in 10.0 mi NW 3.5 mph - N/A   Overcast
7:35 PM 30.2 °F - 17.6 °F 60% 30.44 in 10.0 mi Calm Calm - N/A   Overcast
7:55 PM 30.2 °F 26.7 °F 19.4 °F 64% 30.45 in 10.0 mi NW 3.5 mph - N/A   Overcast
8:15 PM 30.2 °F 26.7 °F 19.4 °F 64% 30.45 in 10.0 mi NW 3.5 mph - N/A   Overcast
8:35 PM 30.2 °F - 17.6 °F 60% 30.45 in 10.0 mi Calm Calm - N/A   Mostly Cloudy
8:55 PM 30.2 °F 26.7 °F 19.4 °F 64% 30.45 in 10.0 mi NW 3.5 mph - N/A   Mostly Cloudy
9:15 PM 30.2 °F - 19.4 °F 64% 30.46 in 10.0 mi Calm Calm - N/A   Overcast
9:35 PM 30.2 °F - 19.4 °F 64% 30.46 in 10.0 mi Calm Calm - N/A   Overcast
9:55 PM 30.2 °F - 19.4 °F 64% 30.46 in 10.0 mi Calm Calm - N/A   Overcast
10:15 PM 30.2 °F - 19.4 °F 64% 30.46 in 10.0 mi Calm Calm - N/A   Overcast
10:35 PM 30.2 °F - 19.4 °F 64% 30.47 in 10.0 mi Calm Calm - N/A   Overcast
10:55 PM 30.2 °F - 21.2 °F 69% 30.47 in 10.0 mi Calm Calm - N/A   Overcast
11:15 PM 30.2 °F - 21.2 °F 69% 30.47 in 10.0 mi Calm Calm - N/A   Overcast
11:35 PM 30.2 °F - 19.4 °F 64% 30.47 in 10.0 mi Calm Calm - N/A   Overcast
11:55 PM 30.2 °F - 19.4 °F 64% 30.47 in 10.0 mi Calm Calm - N/A   Overcast